DHL523 GCLP-GCTS

Flight info

Callsign DHL523
Flight time 0h 23m
Altitude 10000
Route LOMAS
Aircraft B738/M-SDE2E3FGHIRWXY/LB1

Departure

Time 2026-05-03 23:51
Airport Gran Canaria Airport (GCLP)

Arrival

Time 2026-05-04 00:15
Airport Tenerife Sur Airport (GCTS)
Time Latitude Longitude Altitude Speed Heading
2026-05-03 23:34 27.93336 -15.38867 98 ft 0 kts 291°
2026-05-03 23:47 27.93340 -15.38878 98 ft 3 kts 291°
2026-05-03 23:48 27.93352 -15.38927 102 ft 8 kts 259°
2026-05-03 23:48 27.93269 -15.38975 103 ft 20 kts 201°
2026-05-03 23:48 27.93171 -15.38916 95 ft 20 kts 115°
2026-05-03 23:48 27.93049 -15.38921 90 ft 26 kts 202°
2026-05-03 23:49 27.92838 -15.39012 92 ft 38 kts 201°
2026-05-03 23:49 27.92613 -15.39114 100 ft 31 kts 201°
2026-05-03 23:49 27.92424 -15.39199 108 ft 26 kts 201°
2026-05-03 23:49 27.92256 -15.39272 114 ft 23 kts 201°
2026-05-03 23:50 27.92108 -15.39307 114 ft 22 kts 178°
2026-05-03 23:50 27.92004 -15.39300 112 ft 22 kts 176°
2026-05-03 23:50 27.91939 -15.39213 105 ft 14 kts 24°
2026-05-03 23:50 27.92099 -15.39140 101 ft 50 kts 21°
2026-05-03 23:51 27.92655 -15.38894 81 ft 119 kts 21°
2026-05-03 23:51 27.93599 -15.38475 97 ft 168 kts 21°
2026-05-03 23:51 27.94669 -15.37997 737 ft 168 kts 21°
2026-05-03 23:51 27.95785 -15.37509 1318 ft 176 kts 20°
2026-05-03 23:52 27.96969 -15.37007 1747 ft 199 kts 20°
2026-05-03 23:52 27.98351 -15.36412 2316 ft 221 kts 21°
2026-05-03 23:52 27.99834 -15.35750 2982 ft 240 kts 26°
2026-05-03 23:52 28.01214 -15.34639 3791 ft 253 kts 47°
2026-05-03 23:53 28.02133 -15.32965 4878 ft 258 kts 68°
2026-05-03 23:53 28.02428 -15.30982 5880 ft 266 kts 91°
2026-05-03 23:53 28.01986 -15.28973 6919 ft 272 kts 111°
2026-05-03 23:53 28.01184 -15.27029 7940 ft 276 kts 113°
2026-05-03 23:54 28.00140 -15.25208 8868 ft 284 kts 135°
2026-05-03 23:54 27.98420 -15.24137 9824 ft 291 kts 163°
2026-05-03 23:54 27.96358 -15.23869 10104 ft 308 kts 183°
2026-05-03 23:54 27.94294 -15.24630 10136 ft 324 kts 212°
2026-05-03 23:55 27.92673 -15.26519 10145 ft 352 kts 239°
2026-05-03 23:55 27.91514 -15.29019 10115 ft 361 kts 243°
2026-05-03 23:55 27.90329 -15.31478 10123 ft 360 kts 240°
2026-05-03 23:55 27.89088 -15.33968 10127 ft 360 kts 241°
2026-05-03 23:56 27.87890 -15.36424 10127 ft 360 kts 241°
2026-05-03 23:56 27.86691 -15.38897 10128 ft 360 kts 241°
2026-05-03 23:56 27.85483 -15.41389 10127 ft 360 kts 241°
2026-05-03 23:56 27.84274 -15.43884 10128 ft 360 kts 241°
2026-05-03 23:57 27.83075 -15.46362 10128 ft 360 kts 241°
2026-05-03 23:57 27.81866 -15.48858 10127 ft 360 kts 241°
2026-05-03 23:57 27.80667 -15.51334 10128 ft 360 kts 241°
2026-05-03 23:57 27.79473 -15.53798 10128 ft 360 kts 241°
2026-05-03 23:58 27.78263 -15.56294 10128 ft 361 kts 241°
2026-05-03 23:58 27.77034 -15.58830 10128 ft 379 kts 241°
2026-05-03 23:58 27.75746 -15.61484 10132 ft 382 kts 241°
2026-05-03 23:58 27.74475 -15.64102 10128 ft 383 kts 241°
2026-05-03 23:59 27.73267 -15.66773 10116 ft 383 kts 249°
2026-05-03 23:59 27.72725 -15.69706 10135 ft 381 kts 270°
2026-05-03 23:59 27.72963 -15.72670 10147 ft 380 kts 279°
2026-05-03 23:59 27.73341 -15.75612 10120 ft 380 kts 279°
2026-05-04 00:00 27.73687 -15.78557 10125 ft 380 kts 278°
2026-05-04 00:00 27.74036 -15.81514 10129 ft 380 kts 278°
2026-05-04 00:00 27.74390 -15.84465 10129 ft 380 kts 279°
2026-05-04 00:00 27.74750 -15.87446 10128 ft 380 kts 278°
2026-05-04 00:01 27.75106 -15.90402 10128 ft 380 kts 278°
2026-05-04 00:01 27.75465 -15.93387 10128 ft 381 kts 278°
2026-05-04 00:01 27.75818 -15.96331 10128 ft 381 kts 278°
2026-05-04 00:01 27.76175 -15.99316 10128 ft 381 kts 278°
2026-05-04 00:02 27.76525 -16.02247 10128 ft 381 kts 278°
2026-05-04 00:02 27.76879 -16.05221 10128 ft 381 kts 278°
2026-05-04 00:02 27.77230 -16.08174 10128 ft 381 kts 278°
2026-05-04 00:02 27.77585 -16.11160 10128 ft 381 kts 278°
2026-05-04 00:03 27.77934 -16.14105 10128 ft 381 kts 278°
2026-05-04 00:03 27.78286 -16.17082 10128 ft 381 kts 278°
2026-05-04 00:03 27.78635 -16.20035 10128 ft 381 kts 278°
2026-05-04 00:03 27.78985 -16.23002 10128 ft 381 kts 278°
2026-05-04 00:04 27.79337 -16.25996 10128 ft 381 kts 278°
2026-05-04 00:04 27.79682 -16.28932 10127 ft 380 kts 278°
2026-05-04 00:04 27.80025 -16.31865 10125 ft 365 kts 278°
2026-05-04 00:04 27.80344 -16.34598 10129 ft 343 kts 278°
2026-05-04 00:05 27.80648 -16.37209 10127 ft 323 kts 278°
2026-05-04 00:05 27.80934 -16.39660 10053 ft 308 kts 279°
2026-05-04 00:05 27.81210 -16.42030 9804 ft 300 kts 279°
2026-05-04 00:05 27.81478 -16.44328 9560 ft 297 kts 279°
2026-05-04 00:06 27.81747 -16.46638 9312 ft 297 kts 279°
2026-05-04 00:06 27.82018 -16.48975 9061 ft 296 kts 279°
2026-05-04 00:06 27.82285 -16.51284 8793 ft 296 kts 279°
2026-05-04 00:06 27.82550 -16.53578 8422 ft 296 kts 279°
2026-05-04 00:07 27.82815 -16.55875 8024 ft 294 kts 279°
2026-05-04 00:07 27.83080 -16.58172 7620 ft 293 kts 279°
2026-05-04 00:07 27.83343 -16.60461 7216 ft 291 kts 279°
2026-05-04 00:07 27.83603 -16.62724 6730 ft 293 kts 279°
2026-05-04 00:08 27.83867 -16.65019 6288 ft 292 kts 278°
2026-05-04 00:08 27.84124 -16.67266 5884 ft 290 kts 278°
2026-05-04 00:08 27.84385 -16.69541 5479 ft 288 kts 279°
2026-05-04 00:08 27.84916 -16.71699 5070 ft 283 kts 301°
2026-05-04 00:09 27.86199 -16.73312 4699 ft 275 kts 328°
2026-05-04 00:09 27.87919 -16.74173 4360 ft 266 kts 348°
2026-05-04 00:09 27.89683 -16.74557 4232 ft 253 kts 352°
2026-05-04 00:09 27.91363 -16.74917 4139 ft 237 kts 351°
2026-05-04 00:10 27.92927 -16.75253 4046 ft 221 kts 351°
2026-05-04 00:10 27.94386 -16.75564 3992 ft 202 kts 352°
2026-05-04 00:10 27.95725 -16.75848 3598 ft 199 kts 352°
2026-05-04 00:10 27.97092 -16.75782 3084 ft 196 kts 23°
2026-05-04 00:11 27.98066 -16.74865 3010 ft 180 kts 59°
2026-05-04 00:11 27.98630 -16.73602 2958 ft 182 kts 64°
2026-05-04 00:11 27.99148 -16.72333 2746 ft 172 kts 65°
2026-05-04 00:11 27.99608 -16.71090 2541 ft 169 kts 67°
2026-05-04 00:12 28.00048 -16.69846 2316 ft 169 kts 67°
2026-05-04 00:12 28.00480 -16.68615 2087 ft 169 kts 67°
2026-05-04 00:12 28.00913 -16.67377 1854 ft 168 kts 68°
2026-05-04 00:12 28.01320 -16.66209 1648 ft 154 kts 67°
2026-05-04 00:13 28.01710 -16.65088 1428 ft 152 kts 67°
2026-05-04 00:13 28.02103 -16.63972 1222 ft 151 kts 68°
2026-05-04 00:13 28.02486 -16.62872 1019 ft 151 kts 67°
2026-05-04 00:13 28.02879 -16.61758 817 ft 151 kts 66°
2026-05-04 00:14 28.03263 -16.60668 609 ft 152 kts 68°
2026-05-04 00:14 28.03643 -16.59561 408 ft 151 kts 67°
2026-05-04 00:14 28.04024 -16.58464 223 ft 148 kts 68°
2026-05-04 00:14 28.04337 -16.57567 216 ft 86 kts 68°
2026-05-04 00:15 28.04500 -16.57110 216 ft 40 kts 62°
2026-05-04 00:15 28.04639 -16.56898 216 ft 28 kts 49°
2026-05-04 00:15 28.04755 -16.56773 216 ft 17 kts
2026-05-04 00:15 28.04768 -16.56884 216 ft 22 kts 248°
2026-05-04 00:16 28.04699 -16.57081 216 ft 28 kts 248°
2026-05-04 00:16 28.04626 -16.57267 216 ft 25 kts 248°
2026-05-04 00:16 28.04553 -16.57476 216 ft 28 kts 249°
2026-05-04 00:16 28.04483 -16.57677 216 ft 28 kts 248°
2026-05-04 00:17 28.04405 -16.57907 216 ft 31 kts 248°
2026-05-04 00:17 28.04351 -16.58058 216 ft 8 kts 251°
2026-05-04 00:17 28.04374 -16.58097 216 ft 6 kts 338°
2026-05-04 00:17 28.04405 -16.58111 216 ft 2 kts 338°
2026-05-04 00:18 28.04407 -16.58112 216 ft 0 kts 338°